Notices

What's New in latest Release from April 7th, 2021:

- Updated Glossary, including Speed of Maximum Gust, and Total Hourly Precipitation

- Updated national and regional climate services offices contacts and prices information

- Addition of station inventory lists for 1981-2010, 1971-2000, and 1961-1990 Normals.

If you haven't already, please take our survey and provide feedback about our website: https://eccc.sondage-survey.ca/f/LanguageSelection.aspx?s=442ca660-fcf1-47c0-95a9-59707d6fd709

Hourly Data Report for December 15, 2019

SAINT JOHN A
NEW BRUNSWICK
Current Station Operator: NAVCAN

45°18'58.000" N
65°53'24.000" W
108.80 m
8104901
71609
YSJ

Download Data

Hourly Data (December 2019)
Hourly Data Report for December 15, 2019
TIME
LST
Temp Definition
°C
Dew Point Definition
°C
Rel Hum Definition
%
Precip. Amount Definition
mm

Wind Dir Definition
10's deg

Wind Spd Definition
km/h
Visibility Definition
km
Stn Press Definition
kPa
Hmdx Definition


Wind Chill Definition


Weather Definition


00:00 13.0 12.9 99   19 24 4.8 97.74     Rain,Fog
01:00 13.2 12.9 98   17 25 4.8 97.53     Rain,Fog
02:00 13.2 13.0 99   17 30 3.2 97.43     Rain,Fog
03:00 12.4 12.3 100   18 40 1.2 97.27     Fog
04:00 10.9 10.8 100   20 42 3.2 97.30     Rain,Fog
05:00 9.9 9.8 100   21 48 3.2 97.26     Rain,Fog
06:00 9.1 8.6 97   20 39 4.8 97.23     Fog
07:00 8.6 7.8 95   20 44 6.4 97.24     Fog
08:00 8.4 7.1 92   20 43 9.7 97.22     Fog
09:00 6.6 4.1 84   22 41 16.1 97.23     LegendNANA
10:00 6.0 3.4 83   22 31 24.1 97.33     LegendNANA
11:00 5.6 2.0 78   23 27 24.1 97.42     Mostly Cloudy
12:00 5.3 1.1 74   23 33 24.1 97.44     LegendNANA
13:00 5.9 -0.7 62   26 35 24.1 97.50     LegendNANA
14:00 6.4 -0.7 60   25 20 24.1 97.55     Mostly Cloudy
15:00 6.3 -1.7 56   26 33 24.1 97.64     LegendNANA
16:00 5.7 -3.0 54   26 20 24.1 97.81     LegendNANA
17:00 4.5 -3.9 54   26 23 24.1 97.96     Mainly Clear
18:00 4.1 -4.1 55   25 21 24.1 98.07     LegendNANA
19:00 3.2 -5.1 54   25 32 24.1 98.21     LegendNANA
20:00 2.4 -5.9 54   25 29 24.1 98.29     Clear
21:00 1.6 -6.4 56   25 21 24.1 98.40     LegendNANA
22:00 1.0 -7.1 55   26 31 24.1 98.48     LegendNANA
23:00 0.0 -8.9 51   27 43 24.1 98.58   -8 Mostly Cloudy

Notes on Data Quality.

Legend

  • E = Estimated
  • M = Missing
  • NA = Not Available*
  • [empty] = Indicates an unobserved value
Date modified: